Weather in Unegetey

Russia / Republic of Buryatia     52°05′57″N   108°33′55″E
temp.,
°C
wind,
m/s
gust,
m/s
humid.,
%
clouds,
%
prec.,
mm/h
press.,
hPa
HPBL,
m
26 january, tue
tue2623:00−19w3690100 0.0 1028134
02:00−22w2492100 0.0 102889
05:00−22w3592100 0.0 1029109
08:00−22w2591100 0.0 1030104
11:00−19w3683100 0.0 1030500
14:00−17w567399 0.0 1029814
17:00−21wsw4784100 0.0 1031227
20:00−26wsw379088 0.0 1033132
27 january, wed
wed2723:00−28wsw239311 0.0 103535
02:00−29wsw229414 0.0 103534
05:00−29wsw269361 0.0 1036142
08:00−31wsw129571 0.0 103820
11:00−26wsw358771 0.0 1038331
14:00−23w567468 0.0 1037849
17:00−25wsw358489 0.0 1038104
20:00−30wsw229052 0.0 104019
28 january, thu
thu2823:00−32wsw129413 0.0 103919
02:00−33ssw119831 0.0 103919
05:00−35e019863 0.0 103619
08:00−33nne119679 0.0 103519
11:00−29wsw0188100 0.0 1033146
14:00−25wsw248395 0.0 1030386
17:00−26sw229596 0.0 103023
20:00−25sw239798 0.1 103079
29 january, fri
fri2923:00−25ssw1299100 0.3 102832
02:00−24sw1299100 0.7 102485
05:00−23ssw1299100 0.4 102155
08:00−21sw2598100 0.7 1019180
11:00−18sw3595100 0.1 1016208
14:00−14sw4990100 0.4 1013335
17:00−14sw3594100 0.1 1012189
20:00−15sw2397100 0.4 101279
30 january, sat
sat3023:00−17sw339695 0.1 101341
02:00−14sw379691 0.2 1014157
05:00−13sw389594 0.1 1014248
08:00−11sw4109493 0.3 1013394
11:00−9wsw51088100 0.1 1011594
14:00−7wnw61264100 0.9 10091989
17:00−12w5127699 0.3 1013891
20:00−18w6127897 0.3 1019879